Location: *
(43.4667°N, 11.6833°E)
Time: 04:27:25
(UTC+00:00)

Cosmos 2084 Rocket - Pass Details

Date: 19 July 2019
Orbit: 568 x 614 km, 62.8° (Epoch: 21 August)

Event Time Altitude Azimuth Distance (km) Brightness Sun altitude
Rises 21:19:50 0° 322° (NW) 2,851 8.5 -20.1°
Reaches altitude 10° 21:22:06 10° 322° (NW) 1,938 7.3 -20.3°
Maximum altitude 21:26:30 85° 234° (SW) 597 3.3 -20.7°
Enters shadow 21:27:14 61° 153° (SSE) 671 3.4 -20.8°
